Simultaneous Nadir Overpasses (SNOs) Predictions

Prediction of SNOs near US between AQUA and NPP Satellite Orbit:

Table of predicted SNOs near US for the next 10.0 days since TLE Epoch: 6/25/2022
Index Date (AQUA) Time (AQUA) AQUA Lat,Lon Date (NPP) Time (NPP) NPP Lat,Lon Distance(km) Time Diff (sec)
1 06/25/2022 19:10:48 49.98, -92.88 06/25/2022 19:07:29 49.48, -95.84 219.76 199
2 06/28/2022 08:37:25 25.71,-100.66 06/28/2022 08:30:39 25.97,-102.06 143.81 406
3 06/28/2022 10:13:46 34.80,-122.98 06/28/2022 10:09:32 35.14,-124.88 177.76 254
4 07/03/2022 18:19:45 49.97, -80.08 07/03/2022 18:16:52 49.45, -83.18 229.88 173
